Regional Weather Roundup
Issued by NWS

Home | Current Version | Previous Version | Graphics & Text | Print | Product List | Glossary On
Versions: 1 2 3 4 5 6 7 8 9 10 11 12 13 14 15 16 17 18 19 20 21 22 23 24 25 26 27 28 29 30 31 32 33 34 35 36 37 38 39 40 41 42 43 44 45 46 47 48 49 50
490
ASUS44 KMEG 251410
RWRTN
TENNESSEE HOURLY STATE WEATHER ROUNDUP
NATIONAL WEATHER SERVICE MEMPHIS TN
900 AM CDT WED APR 25 2018

TNZ002-004-019-021-049-052-054-088>092-251500-
WEST TENNESSEE

CITY           SKY/WX    TMP DP  RH WIND       PRES   REMARKS
MEMPHIS INTL   FAIR      65  59  81 W6        30.04S
NWS MEMPHIS      N/A     61 N/A N/A MISG        N/A
JACKSON        FAIR      63  57  81 W7        30.04R
DYERSBURG      FAIR      59  56  89 VRB3      30.04R
SOMERVILLE     SUNNY     61  59  94 CALM      30.03S
COVINGTON      SUNNY     63  57  82 VRB6      30.03F
UNION CITY     SUNNY     63  57  82 W7        30.02R
BOLIVAR        SUNNY     63  57  82 W8        30.04S
PARIS          SUNNY     61  55  82 CALM      30.03R
HUNTINGDON     SUNNY     61  57  88 CALM      30.02S
LEXINGTON      SUNNY     61  55  82 CALM      30.03R
SAVANNAH       SUNNY     59  55  88 CALM      30.03S
$$

TNZ008-025-027-028-033-062-065-066-251500-
NORTH MIDDLE TENNESSEE

CITY           SKY/WX    TMP DP  RH WIND       PRES   REMARKS
NASHVILLE      FAIR      62  52  69 N10G20    30.00F
PORTLAND       CLOUDY    55  54  94 N9        30.00S FOG
CLARKSVILLE    FAIR      60  53  77 N6        30.01S
SMYRNA         PTSUNNY   59  53  80 N10       30.01F
COOKEVILLE     CLOUDY    55  54  94 NW6G12    29.97S
LIVINGSTON     PTSUNNY   54  52  94 NW7       29.97S
GALLATIN       CLOUDY    59  52  77 N10       30.03S
CROSSVILLE     CLOUDY    52  50  93 NW10      29.97R FOG
$$

TNZ061-075-076-078-094-096-097-251500-
SOUTH MIDDLE TENNESSEE

CITY           SKY/WX    TMP DP  RH WIND       PRES   REMARKS
LEWISBURG      CLOUDY    59  54  82 N7        30.00S
FAYETTEVILLE   CLOUDY    57  54  88 N7        30.00R
TULLAHOMA      CLOUDY    55  52  88 N9        29.99S
WINCHESTER     CLOUDY    55  52  88 N8G15     29.99S
MCMINNVILLE    CLOUDY    55  52  88 NW8       29.99S
COLUMBIA       CLOUDY    59  59 100 VRB5G12   30.01R
SHELBYVILLE    CLOUDY    57  54  88 N8        30.00S
$$

TNZ017-018-042-046-047-251500-
NORTHEAST TENNESSEE

CITY           SKY/WX    TMP DP  RH WIND       PRES   REMARKS
TRI CITIES     CLOUDY    58  52  80 NW9       29.89R
ELIZABETHTON   CLOUDY    57  54  88 W6        29.89R
$$

TNZ012-013-036-069-073-074-251500-
CENTRAL EAST TENNESSEE

CITY           SKY/WX    TMP DP  RH WIND       PRES   REMARKS
KNOXVILLE      LGT RAIN  57  55  93 W7        29.93R FOG
OAK RIDGE      CLOUDY    59  57  93 VRB3      29.94S
DOWNTOWN KNOXV CLOUDY    59  54  82 VRB6      29.94R
GATLINBURG     CLOUDY    59  54  82 W3        29.92S
MORRISTOWN     CLOUDY    57  54  88 W8        29.91S
JACKSBORO      PTSUNNY   55  52  88 VRB3      29.97S
$$

TNZ083-085-099-251500-
SOUTHEAST TENNESSEE

CITY           SKY/WX    TMP DP  RH WIND       PRES   REMARKS
CHATTANOOGA    PTSUNNY   61  50  67 NW13      29.96R
DAYTON         CLOUDY    61  55  82 NW6       29.95R
$$

SKY/WX REPORTED AS FAIR MEANS FEW OR NO CLOUDS BELOW
12 THOUSAND FEET.





USA.gov is the U.S. government's official web portal to all federal, state and local government web resources and services.